(111) Ate(111) Ate Epoch 2008 Nov. 30.0 TT = JDT 2454800.5 Goffin M 249.22419 (2000.0) P Q n 0.23597181 Peri. 167.08158 -0.38945186 -0.91840398 a 2.5935580 Node 305.79707 +0.83721546 -0.32143463 e 0.1021608 Incl. 4.93137 +0.38392386 -0.23068140 P 4.18 H 8.02 G 0.15 U 0 From 405 observations at 52 oppositions, 1870-2000, mean residual 0".55.An explanation of the orbital elements is available.
These orbital elements are also available in forms suitable for loading into a number of popular planetarium-type software programs.
Personalized ephemerides for this object (and others) can be generated using the MPES.
Date TT R. A. (2000) Decl. Delta r Elong. Phase V 2009 11 07 06 23.82 +28 50.1 1.618 2.372 129.1 18.9 11.9 2009 11 12 06 23.38 +28 52.9 1.569 2.368 134.2 17.4 11.8 2009 11 17 06 22.05 +28 55.2 1.525 2.365 139.5 15.8 11.7 2009 11 22 06 19.83 +28 56.9 1.485 2.362 144.9 13.9 11.5 2009 11 27 06 16.78 +28 57.3 1.450 2.359 150.6 11.9 11.4 2009 12 02 06 12.96 +28 56.3 1.420 2.357 156.3 9.7 11.3 2009 12 07 06 08.49 +28 53.3 1.397 2.354 162.2 7.4 11.1 2009 12 12 06 03.49 +28 48.2 1.379 2.351 167.9 5.0 11.0 2009 12 17 05 58.14 +28 40.5 1.369 2.349 173.1 2.9 10.9 2009 12 22 05 52.65 +28 30.3 1.365 2.347 174.6 2.2 10.8 2009 12 27 05 47.22 +28 17.8 1.369 2.345 170.6 3.9 10.9